Wind_Speed
30 31 31 31 32 32 32 32 33 32 31 31 32 32 32 32 32 33 34 35 35 36 36 37 38 38 39 39 40 41 41 41 41 41 41 41 41 41
31 31 31 31 31 32 32 32 33 34 33 32 33 33 33 33 33 33 33 34 35 35 36 37 37 39 40 40 40 41 42 42 42 42 42 42 42 42
29 30 30 31 32 32 32 32 32 33 33 33 33 33 33 33 33 33 34 34 34 35 35 35 36 37 38 39 40 41 42 43 44 44 43 43 43 43
29 29 30 31 31 31 32 32 32 32 33 33 32 33 33 34 34 34 34 34 34 34 35 35 36 37 39 38 39 40 41 42 43 44 43 43 44 44
29 29 30 30 30 30 30 30 31 32 32 32 32 33 33 33 33 34 34 34 34 34 35 34 35 36 36 38 39 40 41 41 42 43 43 43 44 45
29 30 30 29 28 29 29 30 31 32 32 33 33 32 32 32 32 32 33 34 35 35 35 35 36 36 36 37 39 40 40 41 41 42 42 42 43 43
29 29 29 29 29 29 29 29 30 30 30 30 31 30 30 31 31 31 32 33 34 34 34 35 36 36 37 37 38 39 40 40 41 42 43 43 44 44
29 29 29 29 29 29 30 30 29 29 29 30 30 28 28 29 30 30 31 31 31 32 32 33 34 35 35 36 37 38 39 40 41 42 43 43 44 45
28 28 28 28 28 29 29 29 29 28 28 29 28 27 27 28 28 29 29 29 30 30 31 31 32 32 34 35 35 36 38 39 40 41 42 42 43 44
28 28 28 28 27 27 28 28 28 27 27 27 27 27 27 27 27 27 27 28 29 30 31 31 32 33 33 34 34 35 36 37 38 39 40 40 41 43
29 28 27 26 26 26 26 27 26 25 26 26 27 26 25 26 26 25 25 26 26 27 28 29 29 30 31 32 33 34 35 36 37 38 39 40 41 41
28 27 26 26 26 26 26 25 24 24 24 24 25 24 24 24 24 24 24 24 24 25 26 27 28 29 29 30 32 34 34 35 35 36 37 38 39 40
27 26 25 25 25 25 24 23 23 23 23 23 23 22 23 23 23 23 23 23 23 23 24 25 26 28 28 29 31 33 34 35 35 36 38 38 39 39
26 25 24 24 24 24 24 23 23 23 23 22 22 21 21 22 22 22 22 22 22 22 23 23 24 26 27 27 28 29 31 33 34 35 36 37 39 39
26 25 24 24 24 24 24 24 23 23 23 22 22 21 21 21 20 20 20 19 19 20 22 22 23 24 25 26 26 27 28 30 32 33 34 35 36 37
27 26 25 24 25 25 25 24 23 23 23 22 21 20 20 20 19 19 18 18 18 19 20 21 22 22 23 24 25 25 27 28 30 31 33 34 35 35
28 27 26 25 25 25 24 24 24 24 23 23 22 21 20 19 19 18 18 17 17 17 19 20 20 21 21 22 23 24 25 26 28 29 30 31 32 33
28 27 26 26 25 25 25 25 25 25 24 23 22 20 19 19 18 17 18 17 16 16 18 18 18 18 19 19 20 21 22 23 24 26 28 29 29 30
29 28 27 26 26 25 25 24 24 24 24 23 22 21 20 19 17 17 17 17 17 17 16 16 16 15 15 16 17 18 19 20 21 22 24 26 27 28
30 29 28 28 27 26 26 25 25 25 24 23 23 21 20 19 17 17 17 18 18 17 15 14 14 13 14 14 14 15 16 17 18 19 20 22 24 26
31 30 29 28 28 27 26 25 25 25 24 23 22 22 21 19 18 17 17 18 17 16 15 14 14 13 13 12 11 11 12 13 14 15 17 19 21 23
32 31 30 29 28 27 27 26 26 25 25 24 22 21 21 20 18 18 18 18 17 16 15 14 14 13 12 11 10 10 10 10 11 11 12 15 17 20
32 32 31 30 29 28 27 27 27 26 25 24 23 22 21 20 19 18 18 17 17 16 15 14 13 13 13 12 11 9 8 9 10 10 11 12 14 16
Wind_Direction
300 298 296 294 293 292 294 293 292 290 288 287 286 285 282 279 276 273 270 267 263 261 262 260 256 254 252 251 249 247 246 246 246 246 245 245 244 244
302 300 299 297 294 293 293 293 293 291 289 287 286 285 283 281 279 275 272 269 264 261 261 259 258 255 253 251 249 247 246 245 246 245 244 244 244 244
304 302 301 300 297 294 293 294 293 291 290 288 287 286 284 281 280 277 273 270 265 261 261 260 257 256 252 252 250 248 247 246 245 245 245 244 243 243
308 306 304 302 299 296 295 294 293 292 291 290 287 286 284 282 279 278 275 271 267 264 261 260 258 257 253 251 251 248 247 246 246 244 244 244 242 242
310 308 305 303 301 299 296 295 295 294 292 290 287 285 284 282 278 276 275 271 267 265 262 261 260 257 254 252 251 248 247 247 246 245 244 244 243 241
312 310 308 305 304 302 300 297 296 295 293 290 287 285 282 281 279 277 274 271 266 266 263 262 260 258 256 253 252 250 247 246 246 245 244 244 243 242
315 313 311 308 306 305 302 301 299 298 295 294 291 288 285 282 279 279 276 272 269 267 265 262 261 259 257 255 253 251 247 245 245 246 245 245 244 242
318 316 313 311 308 306 304 303 302 300 298 297 294 293 290 287 284 281 278 274 271 269 267 263 261 259 257 254 253 252 249 247 246 246 245 245 244 243
320 318 317 315 312 310 308 306 305 303 300 298 297 296 294 290 286 283 280 276 273 271 269 266 262 260 257 254 254 253 250 248 246 245 244 244 243 243
323 320 318 316 316 313 311 310 307 306 303 301 300 298 295 293 290 287 283 278 274 272 270 267 265 263 259 255 253 253 251 248 245 244 243 243 244 243
325 323 322 321 320 319 318 317 315 311 307 305 303 301 298 294 291 289 285 280 276 274 271 269 267 264 261 258 254 251 249 247 246 245 244 243 243 243
329 328 327 327 326 326 324 322 320 317 313 310 307 303 301 296 293 290 288 284 280 277 273 271 269 267 264 261 258 254 251 247 245 245 244 244 244 243
334 332 331 331 330 330 330 328 325 323 320 316 313 310 307 304 299 296 293 287 283 281 276 273 271 268 266 263 259 257 253 249 246 245 244 243 244 243
338 337 336 335 335 334 333 332 330 328 325 322 319 315 313 310 306 301 298 293 289 284 280 277 274 272 269 266 262 257 253 250 247 246 246 245 243 242
341 340 339 339 339 337 337 335 333 332 331 329 325 320 317 313 310 306 301 297 293 288 284 281 280 277 272 268 263 258 255 252 249 246 245 245 245 244
345 344 344 342 341 340 339 338 337 335 333 332 330 326 323 320 316 314 309 303 298 293 290 288 285 279 273 269 265 261 257 254 251 247 245 245 244 245
348 347 345 344 343 342 341 341 340 339 338 336 334 332 329 326 323 321 319 315 309 300 294 292 292 287 279 272 266 263 259 255 252 249 245 243 243 243
352 349 348 347 346 345 344 343 343 343 342 340 338 336 333 331 328 326 325 322 317 311 304 299 296 291 285 277 271 267 262 258 251 248 246 244 242 241
353 352 351 351 349 348 347 346 344 344 344 342 341 340 338 336 332 330 328 327 325 320 314 306 301 297 290 282 274 269 264 259 251 246 244 242 240 239
356 354 353 352 350 349 348 347 346 346 346 345 344 343 342 340 338 335 333 331 330 327 322 319 315 308 300 292 284 273 265 260 251 247 244 242 239 239
356 356 355 354 352 351 350 349 348 349 349 348 347 346 344 342 340 339 339 339 338 336 333 329 324 319 311 303 293 279 270 261 250 245 243 242 240 239
359 358 357 356 356 355 354 353 352 352 353 352 351 349 348 347 345 343 342 343 342 340 339 337 334 329 322 313 304 291 279 265 251 245 243 244 244 240
1 -0 359 359 359 358 358 358 357 355 354 353 352 352 352 351 351 350 349 347 346 344 343 341 337 333 331 323 313 300 282 269 258 254 253 251 251 246
Height
5733 5730 5726 5723 5720 5718 5715 5712 5709 5706 5705 5703 5701 5699 5698 5697 5697 5697 5697 5698 5699 5700 5701 5703 5705 5707 5710 5712 5716 5719 5723 5727 5731 5735 5738 5742 5746 5750
5725 5722 5718 5715 5712 5709 5706 5703 5699 5697 5695 5693 5691 5689 5687 5687 5686 5686 5686 5687 5688 5689 5690 5692 5694 5696 5698 5701 5704 5707 5711 5715 5719 5723 5727 5731 5735 5739
5718 5714 5710 5707 5703 5700 5697 5694 5690 5687 5685 5683 5681 5679 5677 5676 5676 5675 5676 5676 5677 5678 5679 5681 5682 5684 5686 5689 5692 5696 5699 5703 5707 5711 5715 5719 5723 5728
5710 5707 5703 5699 5695 5691 5688 5684 5681 5678 5675 5673 5671 5669 5667 5666 5666 5665 5665 5665 5666 5667 5668 5670 5671 5673 5675 5678 5681 5684 5687 5691 5695 5699 5704 5708 5712 5716
5703 5699 5695 5691 5686 5683 5679 5676 5672 5669 5666 5664 5662 5659 5658 5656 5655 5654 5654 5654 5655 5656 5657 5658 5660 5661 5663 5666 5669 5672 5675 5679 5683 5687 5691 5695 5700 5704
5696 5692 5687 5682 5678 5675 5671 5667 5664 5660 5657 5654 5652 5650 5648 5646 5644 5644 5643 5643 5644 5644 5646 5647 5648 5649 5652 5654 5657 5660 5663 5667 5671 5675 5679 5684 5688 5692
5689 5684 5679 5674 5670 5667 5663 5659 5655 5651 5648 5645 5642 5640 5638 5636 5634 5633 5633 5632 5633 5633 5634 5635 5637 5638 5640 5642 5645 5648 5651 5655 5659 5663 5667 5671 5676 5680
5683 5677 5672 5668 5663 5659 5655 5650 5646 5643 5640 5636 5634 5631 5629 5626 5625 5623 5623 5623 5623 5623 5623 5624 5625 5627 5629 5631 5633 5636 5639 5643 5646 5650 5654 5659 5663 5667
5676 5670 5665 5660 5656 5651 5647 5642 5638 5634 5631 5628 5625 5622 5620 5618 5616 5615 5613 5612 5613 5613 5613 5613 5614 5616 5617 5620 5622 5625 5628 5631 5634 5638 5642 5647 5651 5655
5670 5664 5659 5654 5649 5644 5640 5635 5631 5627 5624 5620 5617 5614 5611 5609 5607 5605 5604 5603 5603 5603 5602 5603 5604 5605 5607 5609 5611 5614 5616 5620 5623 5627 5631 5635 5639 5643
5664 5659 5653 5648 5643 5638 5633 5629 5624 5620 5616 5613 5609 5606 5603 5601 5598 5597 5595 5594 5594 5594 5593 5594 5594 5595 5597 5599 5600 5603 5606 5609 5612 5615 5619 5623 5627 5631
5659 5653 5648 5643 5637 5632 5627 5623 5618 5614 5610 5606 5603 5599 5596 5594 5591 5589 5587 5586 5585 5585 5584 5584 5585 5585 5587 5589 5590 5592 5594 5597 5601 5604 5608 5611 5615 5619
5654 5648 5643 5638 5633 5627 5623 5618 5614 5609 5605 5601 5597 5593 5590 5587 5584 5581 5579 5578 5577 5576 5576 5575 5575 5576 5577 5579 5580 5581 5584 5587 5590 5593 5596 5600 5604 5608
5650 5644 5639 5634 5629 5624 5619 5614 5609 5604 5600 5596 5591 5588 5584 5581 5577 5574 5572 5570 5569 5568 5567 5567 5566 5566 5567 5568 5570 5571 5573 5575 5579 5582 5585 5588 5592 5596
5647 5641 5635 5630 5625 5620 5615 5610 5605 5600 5595 5590 5586 5582 5578 5575 5572 5569 5566 5564 5562 5561 5560 5559 5558 5558 5558 5559 5560 5562 5563 5565 5568 5571 5574 5578 5581 5585
5644 5638 5632 5627 5622 5616 5611 5606 5601 5596 5591 5586 5581 5577 5573 5570 5566 5563 5561 5558 5557 5555 5553 5552 5551 5550 5550 5550 5551 5552 5554 5556 5558 5560 5563 5567 5571 5575
5642 5636 5630 5625 5619 5614 5608 5603 5598 5593 5587 5582 5577 5573 5569 5566 5562 5559 5556 5554 5551 5549 5548 5546 5544 5543 5542 5542 5543 5544 5545 5546 5548 5550 5553 5557 5561 5565
5640 5634 5628 5622 5616 5611 5606 5600 5595 5589 5584 5579 5574 5570 5566 5563 5559 5556 5553 5550 5547 5545 5542 5540 5538 5537 5536 5535 5535 5536 5537 5538 5540 5542 5544 5548 5552 5555
5638 5632 5625 5620 5614 5608 5603 5597 5592 5587 5581 5576 5572 5568 5564 5560 5556 5553 5550 5547 5543 5540 5538 5535 5533 5532 5531 5530 5530 5529 5530 5531 5532 5534 5536 5540 5543 5547
5637 5630 5624 5618 5612 5606 5601 5595 5590 5584 5579 5574 5570 5565 5561 5557 5554 5550 5547 5544 5540 5537 5534 5532 5529 5527 5526 5525 5525 5524 5524 5525 5526 5528 5530 5532 5535 5538
5636 5629 5622 5616 5610 5604 5599 5593 5588 5582 5577 5572 5567 5563 5559 5555 5551 5548 5544 5541 5537 5534 5531 5529 5526 5524 5522 5521 5520 5520 5520 5520 5521 5522 5524 5527 5529 5532
5635 5628 5622 5615 5609 5603 5597 5592 5586 5581 5575 5570 5565 5561 5556 5552 5549 5545 5542 5538 5535 5532 5529 5526 5524 5522 5520 5518 5517 5517 5517 5517 5517 5518 5520 5522 5524 5526
5635 5628 5621 5615 5609 5602 5597 5591 5585 5579 5574 5569 5564 5559 5555 5551 5547 5543 5540 5537 5533 5530 5527 5525 5522 5520 5518 5516 5515 5514 5514 5514 5514 5515 5516 5517 5519 5521